Red Bluff, CA

12:11 AM PST on November 13, 2019 (GMT -0800)
Red Bluff Municipal

Weather History for KRBL - September, 2019

Change the Weather History Date:

Wednesday, September 4, 2019

  Actual Average Record
Temperature  
Mean Temperature 81 °F -  
Max Temperature 98 °F 96 °F 118 °F (1988)
Min Temperature 64 °F 62 °F 49 °F (1940)
Cooling Degree Days 16    
Growing Degree Days 31 (Base 50)    
Moisture  
Dew Point 45 °F    
Average Humidity 29    
Maximum Humidity 48    
Minimum Humidity 10    
Precipitation  
Precipitation 0.00 in - - ()
Sea Level Pressure  
Sea Level Pressure 29.83 in    
Wind  
Wind Speed 6 mph (NNE)    
Max Wind Speed 10 mph    
Max Gust Speed -    
Visibility 10 miles    
Events      
Averages and records for this station are not official NWS values.
T = Trace of Precipitation, MM = Missing Value Source: NWS Daily Summary

Daily Weather History Graph

Daily Weather History Graph

Search for Another Location

Airport or City:

Astronomy

Sep. 04, 2019 Rise Set
Actual Time 6:39 AM PDT 7:35 PM PDT
Civil Twilight 6:11 AM PDT 8:03 PM PDT
Nautical Twilight 5:38 AM PDT 8:36 PM PDT
Astronomical Twilight 5:04 AM PDT 9:10 PM PDT
Moon 12:47 PM PDT (9/4) 11:13 PM PDT (9/4)
Length of Visible Light 13h 51m
Length of Day
12h 56m
Waxing Crescent, 36% of the Moon is Illuminated
Sep 4
Waxing Crescent
Sep 5
First Quarter
Sep 13
Full
Sep 21
Last Quarter
Sep 28
New

Hourly Weather History & Observations

Time (PDT) Temp. Heat Index Dew Point Humidity Pressure Visibility Wind Dir Wind Speed Gust Speed Precip Events Conditions
12:54 AM 68.0 °F - 46.0 °F 45% 29.87 in 10.0 mi WNW 4.6 mph - N/A   Clear
1:54 AM 68.0 °F - 46.9 °F 47% 29.87 in 10.0 mi WNW 6.9 mph - N/A   Clear
2:54 AM 69.1 °F - 45.0 °F 42% 29.86 in 10.0 mi NW 6.9 mph - N/A   Clear
3:54 AM 70.0 °F - 45.0 °F 41% 29.86 in 10.0 mi NW 5.8 mph - N/A   Clear
4:54 AM 66.9 °F - 44.1 °F 44% 29.85 in 10.0 mi NNW 5.8 mph - N/A   Clear
5:54 AM 64.9 °F - 44.1 °F 47% 29.86 in 10.0 mi North 4.6 mph - N/A   Clear
6:54 AM 64.9 °F - 45.0 °F 48% 29.87 in 10.0 mi NNW 6.9 mph - N/A   Clear
7:54 AM 70.0 °F - 46.0 °F 42% 29.88 in 10.0 mi NW 5.8 mph - N/A   Clear
8:54 AM 77.0 °F - 45.0 °F 32% 29.88 in 10.0 mi North 9.2 mph - N/A   Clear
9:54 AM 82.9 °F - 43.0 °F 24% 29.88 in 10.0 mi North 8.1 mph - N/A   Clear
10:54 AM 89.1 °F - 41.0 °F 19% 29.87 in 10.0 mi North 6.9 mph - N/A   Clear
11:54 AM 91.9 °F - 41.0 °F 17% 29.85 in 10.0 mi Variable 3.5 mph - N/A   Clear
12:54 PM 96.1 °F - 44.1 °F 17% 29.83 in 10.0 mi East 4.6 mph - N/A   Clear
1:54 PM 96.1 °F - 43.0 °F 16% 29.82 in 10.0 mi SE 10.4 mph - N/A   Clear
2:54 PM 93.9 °F - 48.0 °F 21% 29.81 in 10.0 mi SE 10.4 mph - N/A   Clear
3:54 PM 96.1 °F - 43.0 °F 16% 29.80 in 10.0 mi South 8.1 mph - N/A   Clear
4:54 PM 91.9 °F - 48.0 °F 22% 29.78 in 10.0 mi SE 5.8 mph - 0.00 in   Partly Cloudy
5:54 PM 93.9 °F - 42.1 °F 17% 29.77 in 10.0 mi SE 4.6 mph - N/A   Clear
6:54 PM 95.0 °F - 37.0 °F 13% 29.77 in 10.0 mi South 4.6 mph - N/A   Clear
7:54 PM 89.1 °F - 41.0 °F 19% 29.78 in 10.0 mi SSW 3.5 mph - N/A   Clear
8:54 PM 84.9 °F - 46.0 °F 26% 29.80 in 10.0 mi SE 3.5 mph - N/A   Clear
9:54 PM 82.0 °F 81.2 °F 53.1 °F 37% 29.81 in 10.0 mi SE 4.6 mph - N/A   Clear
10:54 PM 79.0 °F - 54.0 °F 42% 29.83 in 10.0 mi Calm Calm - N/A   Clear
11:54 PM 75.0 °F - 50.0 °F 41% 29.83 in 10.0 mi North 3.5 mph - N/A   Clear